Temperature
20 20 20 20 20 20 20 20 19 19 19 19 19 19 19 19 19 19 19 19 19 19 19 19 19 19 19 18 18 18 18 18 18 18 18 18 18 18 18 18 18 18 18
20 20 20 20 20 20 20 19 19 19 19 19 19 19 19 19 19 19 19 19 19 19 19 19 19 19 19 18 18 18 18 18 18 18 18 18 18 18 18 18 18 18 18
21 20 20 20 20 20 20 19 19 19 19 19 19 19 19 19 19 19 19 19 19 19 19 19 19 19 18 18 18 18 18 18 18 18 18 18 18 18 18 18 18 18 18
21 21 20 20 20 20 19 19 19 19 19 19 19 19 19 19 19 19 19 19 19 19 19 19 19 18 18 18 18 18 18 18 18 18 18 18 18 18 18 18 18 18 18
21 21 20 20 20 20 20 19 19 19 19 19 19 19 19 19 19 19 19 19 19 19 19 19 19 18 18 18 18 18 18 18 18 18 18 18 18 18 18 18 18 18 18
21 21 20 20 20 20 20 19 20 19 19 19 19 19 19 19 19 19 19 19 19 19 19 19 19 18 18 18 18 18 18 18 18 18 18 18 18 18 18 18 18 18 18
21 21 20 20 20 20 20 20 19 19 19 19 19 19 19 19 19 19 19 19 19 19 19 19 19 18 18 18 18 18 18 18 18 18 18 18 18 18 18 18 18 18 18
21 21 20 20 20 20 20 20 19 19 20 19 19 19 19 19 19 19 19 19 19 19 19 19 19 18 18 18 18 18 18 18 18 18 18 18 18 18 18 18 18 18 17
21 21 20 20 20 20 20 20 19 19 20 20 19 19 19 19 19 19 19 19 19 19 19 19 19 19 18 18 18 18 18 18 18 18 18 18 18 18 18 18 18 18 17
21 21 21 20 20 20 20 20 19 19 19 19 19 19 19 19 19 19 19 19 19 19 19 19 19 19 18 18 18 18 18 18 18 18 18 18 18 18 18 18 18 17 17
21 21 21 20 20 20 20 20 19 19 19 19 19 19 19 19 19 19 19 19 19 19 19 19 19 19 18 18 18 18 18 18 18 18 18 18 18 18 18 18 18 17 17
21 20 20 20 20 20 20 20 19 19 19 19 19 19 19 19 19 19 19 19 19 19 19 19 19 19 19 18 18 18 18 18 18 18 18 18 18 18 18 18 18 18 17
21 20 20 20 20 20 20 20 19 19 19 19 19 19 19 19 19 19 19 19 19 19 19 19 19 19 19 18 18 18 18 18 18 18 18 18 18 18 18 18 18 18 18
21 20 20 20 20 20 20 20 19 19 19 19 19 19 19 19 19 19 19 19 19 19 19 19 19 19 19 19 19 18 18 18 18 18 18 18 18 18 18 18 18 18 18
21 21 20 20 20 20 20 20 19 19 19 19 19 19 19 19 19 19 19 19 19 19 19 19 19 19 19 19 19 19 19 18 18 18 18 18 18 18 18 18 18 18 18
21 21 20 20 20 20 20 20 20 19 19 19 19 19 19 19 19 19 19 19 19 19 19 19 19 19 19 19 19 19 19 18 18 18 18 18 18 18 18 18 18 17 17
21 21 21 21 20 20 20 20 20 20 19 19 19 19 19 19 19 19 19 19 19 19 19 19 19 19 19 19 19 19 18 18 18 18 18 18 18 18 18 18 18 17 17
22 21 21 21 20 20 20 20 20 19 19 19 19 19 19 19 19 19 19 19 19 19 19 19 19 19 19 19 19 19 18 18 18 18 18 18 18 18 18 18 18 18 17
22 21 21 21 20 20 20 20 20 19 19 19 19 19 19 19 19 19 19 19 19 19 19 19 19 19 19 19 19 19 18 18 18 18 18 18 18 18 18 18 18 17 17
22 22 21 21 21 20 20 20 20 19 19 19 19 19 19 19 19 19 19 19 19 19 19 19 19 19 19 19 19 19 18 18 18 18 18 18 18 18 18 18 18 17 17
22 22 21 21 21 20 20 20 20 20 20 19 19 19 19 19 19 19 19 19 19 19 19 19 19 19 19 19 19 19 18 18 18 18 18 18 18 18 18 18 18 18 18
22 22 21 21 21 21 21 20 20 20 20 20 19 19 19 19 19 19 19 19 19 19 19 19 19 19 19 19 19 19 18 18 18 18 18 18 18 18 18 18 18 18 18
22 22 22 21 21 21 21 20 20 20 20 19 19 19 19 19 19 19 19 19 19 19 19 19 19 19 19 19 19 19 18 18 18 18 18 18 18 18 18 18 18 18 18
23 22 22 22 21 21 21 21 20 20 20 20 20 19 19 19 19 19 19 19 19 19 19 19 19 19 19 19 19 19 19 18 18 18 18 18 18 18 18 18 18 18 18
23 22 22 22 21 21 21 20 20 20 20 20 20 19 19 19 19 19 19 19 19 19 19 19 19 19 19 19 19 19 18 18 18 18 18 18 18 18 18 18 18 18 18
23 22 22 22 22 21 21 20 20 20 20 20 20 19 19 19 19 19 19 19 19 19 19 19 19 19 19 19 18 18 18 18 18 18 18 18 18 18 18 18 18 18 18
Wind_Speed
2 3 9 10 11 11 12 12 12 12 12 12 12 12 13 15 15 15 16 17 18 18 16 17 19 19 19 19 20 20 20 20 19 18 18 17 16 16 16 15 14 13 15
5 5 10 11 12 12 12 12 12 12 12 12 13 13 13 14 16 16 17 18 18 18 18 19 19 19 19 19 20 20 20 19 18 17 17 15 15 15 15 14 14 13 15
7 6 10 11 11 12 12 12 13 12 12 13 14 14 15 16 17 17 17 18 19 18 18 18 19 19 19 19 19 19 19 18 17 16 15 12 13 14 14 14 14 15 15
8 8 10 12 12 12 12 12 13 13 13 14 14 14 15 16 17 18 18 18 19 19 18 18 18 19 19 19 18 18 17 16 16 15 11 10 12 13 14 14 14 14 14
7 8 11 13 12 13 12 12 13 13 13 13 14 14 15 16 17 18 18 19 19 19 19 18 18 18 18 18 17 16 15 15 15 13 10 10 11 13 13 13 13 13 13
7 8 11 13 13 13 12 12 13 14 13 14 14 14 15 16 17 18 18 18 18 19 18 17 17 17 16 16 16 15 13 13 13 11 11 10 10 12 12 12 12 13 13
7 7 11 13 13 13 12 12 13 13 14 14 14 14 15 16 17 17 18 18 18 18 17 16 16 15 14 14 14 13 11 12 11 10 9 10 11 13 12 12 12 12 13
9 7 10 13 13 13 12 12 12 12 13 13 14 14 15 16 17 16 17 16 16 16 16 14 13 13 12 12 12 10 10 10 11 9 9 10 12 13 13 12 12 11 12
8 7 7 9 11 12 12 12 11 11 12 13 13 14 14 15 15 15 16 15 14 14 13 12 12 11 11 10 9 8 8 10 10 9 10 10 13 13 12 12 12 12 11
7 6 5 6 7 8 9 11 11 11 11 12 13 13 14 14 14 14 13 13 13 12 11 10 10 9 9 8 7 6 7 10 9 9 9 11 14 13 13 13 12 11 11
7 5 5 5 6 7 8 9 10 10 11 11 11 13 12 9 9 10 11 11 11 10 9 9 8 8 7 6 6 5 7 7 8 7 9 12 14 14 13 13 12 12 11
7 5 4 5 5 6 7 7 6 7 7 7 7 7 7 7 7 8 10 10 9 9 8 7 7 6 4 3 3 4 4 7 6 7 9 13 14 14 13 13 12 12 11
8 7 5 5 5 5 4 5 4 5 5 5 6 6 6 5 5 5 5 5 5 6 5 5 4 3 3 3 2 3 5 6 5 6 9 12 14 14 13 13 12 12 11
8 7 6 5 5 5 5 4 4 4 3 3 5 7 6 4 3 3 3 3 3 3 3 2 2 3 3 3 4 4 5 5 6 7 9 13 13 13 13 13 12 12 11
8 7 6 6 6 5 5 3 4 4 4 5 5 6 6 4 3 2 2 3 3 3 3 3 2 2 3 3 4 5 5 5 6 7 8 13 14 13 13 13 13 12 12
8 8 7 7 6 6 4 4 3 4 4 5 5 6 6 5 3 3 2 2 2 3 4 4 4 3 2 3 3 4 5 6 6 7 7 11 13 13 12 13 13 13 12
9 7 7 7 6 6 5 4 4 3 4 3 4 5 6 5 4 3 2 2 2 3 3 3 2 2 2 2 3 3 4 5 6 7 8 8 9 11 12 12 12 12 12
9 8 7 7 6 5 5 4 3 3 3 3 4 4 5 5 5 3 2 2 3 3 3 3 2 2 1 1 2 2 3 4 5 6 7 7 8 8 10 12 12 12 11
10 9 7 6 6 5 5 4 3 3 3 3 4 4 5 5 5 3 2 1 2 2 2 3 3 3 2 2 2 2 2 3 4 5 5 6 7 8 8 10 11 11 11
9 8 8 7 6 5 4 3 2 2 1 2 2 3 4 4 4 4 2 2 2 2 2 2 2 2 2 2 2 1 2 3 3 4 5 5 7 9 9 9 9 9 12
8 8 8 7 6 5 3 3 3 2 1 1 2 3 4 4 4 3 2 2 2 2 2 3 2 2 1 1 2 1 1 0 2 3 3 3 5 7 8 8 8 7 8
10 9 9 8 7 6 4 3 3 2 2 2 1 2 3 4 4 4 3 2 2 2 2 2 2 2 1 2 3 2 1 3 2 3 2 3 4 4 5 8 8 8 8
10 11 10 9 7 7 5 3 2 2 2 1 0 1 1 3 3 3 3 3 2 2 2 2 3 3 2 1 2 3 2 2 2 2 2 3 4 4 5 5 7 8 9
11 10 9 8 8 7 6 5 5 4 3 2 2 2 1 2 3 3 3 3 2 2 2 2 2 2 3 1 1 1 2 3 2 1 2 2 2 3 4 4 4 6 7
11 10 9 8 7 6 6 6 5 4 3 2 2 2 1 1 2 2 3 3 2 2 2 1 1 2 2 2 1 1 1 0 1 2 1 3 2 2 2 3 3 3 5
10 9 9 9 8 7 7 6 6 5 4 4 3 2 2 1 1 1 2 2 2 2 2 2 2 2 2 2 2 2 2 2 2 2 2 2 2 3 2 2 2 3 4
Wind_Direction
118 130 111 105 102 98 93 90 90 92 95 97 100 103 107 115 118 123 127 128 127 125 125 129 133 132 132 134 137 139 139 138 139 138 136 137 136 136 134 130 127 124 124
149 139 116 108 104 100 98 94 91 94 96 98 101 104 107 115 121 120 125 126 124 123 122 122 126 128 129 132 134 137 137 137 137 137 136 135 136 136 133 129 128 128 127
135 131 120 112 106 102 99 96 93 92 92 96 101 104 106 113 118 121 123 123 121 120 120 122 126 128 127 128 130 133 134 136 137 136 134 131 133 133 133 131 130 130 130
134 128 121 116 110 104 100 99 97 95 94 96 101 104 107 111 115 119 121 121 119 118 119 120 124 125 123 124 126 128 131 133 133 133 130 129 133 136 135 135 135 133 134
126 127 125 118 112 107 103 100 100 99 98 100 102 105 109 113 116 118 121 121 120 120 120 121 123 123 123 123 123 125 128 129 131 128 122 124 130 138 139 139 139 138 138
125 132 130 121 116 112 107 102 102 102 102 103 106 107 112 117 119 120 121 121 121 122 123 123 124 125 125 125 124 125 124 128 129 130 130 130 132 137 141 143 144 143 143
132 134 132 123 121 117 113 107 106 107 107 109 111 110 112 117 120 121 122 123 124 125 127 127 126 128 130 129 128 129 129 131 133 135 137 140 143 144 147 150 151 149 148
137 140 133 129 126 122 118 114 111 111 110 111 115 116 117 119 120 122 126 126 127 128 129 131 131 134 136 135 135 135 134 138 141 142 143 145 150 150 152 155 154 152 153
135 137 138 140 134 128 125 122 118 114 112 114 121 123 121 123 125 126 129 128 130 131 133 136 138 139 141 140 140 141 144 146 141 147 153 155 159 159 158 158 154 152 155
129 136 140 141 140 137 133 130 128 122 118 118 124 127 126 126 128 128 129 133 136 138 140 144 145 145 145 146 150 151 148 146 148 153 156 163 165 163 162 161 160 160 161
132 141 144 144 146 145 140 136 135 131 128 124 124 124 124 124 131 136 138 141 144 148 151 153 155 155 154 160 167 165 156 150 151 152 163 167 167 168 168 168 167 168 169
150 154 154 147 151 154 146 142 142 136 135 132 133 131 131 132 138 141 145 153 156 160 163 168 172 169 169 172 176 170 150 148 147 158 168 171 171 172 173 173 174 177 178
155 153 155 150 147 146 140 144 145 140 138 135 139 138 137 131 133 134 140 153 163 170 177 182 188 189 184 176 175 152 153 150 151 164 170 175 175 176 178 178 180 183 185
147 148 150 145 134 137 139 141 144 141 143 141 148 144 137 129 130 144 151 164 173 181 187 184 182 193 190 183 167 149 149 151 159 161 173 178 179 179 181 181 183 185 188
136 138 141 133 132 134 135 145 140 147 156 158 146 144 139 139 147 161 169 176 184 179 174 170 180 181 178 173 169 158 158 156 161 166 175 181 182 186 188 187 190 192 194
141 144 143 136 136 131 131 133 135 148 151 142 146 152 151 151 150 150 153 166 171 176 167 166 175 171 171 162 173 169 163 161 165 169 171 182 188 191 194 196 200 202 203
149 148 147 144 138 135 134 138 132 148 151 141 155 155 153 154 160 148 140 158 184 169 155 147 149 145 166 167 173 179 166 168 171 173 177 184 193 200 203 204 205 207 210
149 149 156 147 139 139 141 140 134 147 148 152 160 157 159 158 155 141 146 181 187 162 151 143 136 144 164 175 186 200 185 175 178 179 181 188 194 201 207 209 209 209 213
155 154 155 145 144 145 140 138 134 133 140 155 157 160 165 159 153 142 147 169 156 141 140 157 151 158 170 188 205 203 194 189 188 188 188 191 197 205 204 209 212 216 219
156 154 152 149 152 145 133 119 110 106 130 150 158 165 161 162 155 145 145 154 140 125 127 142 153 158 176 185 194 189 206 198 191 197 199 195 198 207 203 206 210 221 224
154 152 153 152 158 149 141 142 138 159 170 181 186 177 172 167 158 147 142 146 145 147 164 163 156 153 170 146 109 18 338 271 209 214 209 198 207 208 201 205 206 211 218
165 162 160 163 164 163 162 165 162 158 174 181 187 166 169 161 160 158 149 158 157 149 148 157 151 155 183 149 137 116 352 345 320 246 220 212 221 207 206 208 201 206 213
172 173 171 170 167 167 159 142 126 87 53 62 112 173 183 160 159 152 148 155 156 158 178 189 166 162 183 235 153 152 160 224 288 315 255 231 224 215 216 209 205 208 213
178 174 168 167 166 166 158 154 154 159 172 198 185 179 191 168 161 162 151 156 150 153 170 187 157 155 152 193 252 196 179 168 169 302 323 290 253 227 228 222 218 213 213
173 167 164 159 162 164 163 168 166 171 183 180 152 147 168 170 167 162 152 150 144 151 161 156 136 147 161 165 170 170 147 92 147 164 263 305 313 278 235 215 210 207 204
171 168 164 160 167 169 167 168 170 173 173 161 160 162 174 171 174 156 148 143 146 149 157 166 164 156 163 160 165 162 160 163 186 172 213 257 285 291 279 243 216 210 203
Height
1507 1505 1504 1503 1501 1500 1498 1496 1495 1494 1493 1492 1491 1490 1490 1490 1492 1493 1495 1497 1498 1500 1500 1500 1504 1507 1510 1513 1516 1519 1521 1524 1527 1529 1531 1533 1535 1536 1537 1539 1540 1541 1542
1507 1506 1505 1504 1503 1501 1500 1498 1497 1496 1494 1493 1492 1491 1490 1490 1492 1494 1496 1498 1500 1501 1503 1503 1505 1509 1512 1515 1517 1520 1523 1525 1528 1530 1532 1534 1535 1537 1538 1540 1541 1541 1542
1508 1507 1507 1505 1505 1503 1502 1500 1499 1497 1496 1494 1493 1493 1492 1492 1494 1496 1498 1500 1502 1504 1506 1507 1509 1512 1514 1517 1519 1522 1524 1527 1529 1531 1533 1535 1536 1538 1539 1540 1542 1542 1543
1509 1508 1508 1507 1506 1505 1503 1502 1500 1499 1498 1496 1496 1495 1494 1495 1496 1498 1500 1502 1505 1507 1509 1511 1513 1515 1517 1519 1521 1524 1526 1528 1530 1532 1534 1536 1537 1539 1540 1541 1542 1543 1544
1510 1510 1509 1509 1508 1506 1505 1504 1502 1501 1500 1498 1498 1497 1497 1497 1499 1500 1503 1505 1507 1510 1512 1514 1516 1518 1520 1522 1524 1526 1528 1530 1532 1534 1535 1537 1538 1539 1540 1542 1543 1544 1544
1511 1511 1511 1510 1509 1508 1507 1506 1504 1503 1502 1501 1500 1499 1499 1500 1501 1503 1505 1508 1510 1513 1515 1517 1519 1521 1523 1525 1527 1529 1530 1532 1533 1535 1536 1538 1539 1540 1541 1542 1543 1544 1545
1512 1512 1512 1512 1511 1511 1509 1508 1507 1505 1504 1503 1502 1502 1502 1503 1505 1507 1509 1511 1514 1516 1518 1520 1522 1524 1526 1528 1529 1531 1533 1534 1535 1537 1538 1539 1540 1541 1542 1543 1544 1545 1545
1513 1514 1514 1514 1513 1512 1511 1511 1509 1508 1506 1504 1504 1505 1506 1507 1509 1510 1512 1515 1517 1519 1521 1523 1525 1527 1529 1530 1532 1533 1534 1536 1537 1538 1539 1539 1540 1541 1542 1544 1544 1545 1546
1515 1515 1515 1515 1515 1514 1513 1513 1512 1510 1508 1506 1506 1507 1509 1511 1512 1514 1516 1518 1520 1522 1524 1526 1528 1529 1531 1532 1534 1535 1536 1537 1538 1539 1539 1540 1541 1542 1543 1544 1545 1546 1546
1517 1516 1516 1516 1516 1516 1515 1515 1514 1513 1511 1509 1509 1510 1512 1514 1516 1518 1520 1521 1523 1525 1526 1528 1530 1531 1533 1534 1535 1536 1537 1538 1539 1540 1540 1541 1541 1542 1543 1544 1545 1546 1546
1518 1518 1517 1517 1517 1517 1517 1517 1517 1516 1515 1514 1514 1515 1516 1518 1520 1521 1523 1524 1526 1527 1529 1530 1532 1533 1534 1536 1536 1537 1538 1539 1540 1540 1540 1541 1542 1542 1543 1544 1544 1545 1546
1518 1519 1518 1517 1517 1518 1519 1519 1519 1519 1519 1519 1519 1519 1521 1522 1523 1524 1525 1526 1528 1529 1530 1532 1533 1535 1536 1537 1537 1538 1539 1539 1540 1540 1541 1541 1542 1542 1543 1544 1544 1545 1546
1519 1519 1519 1519 1519 1519 1520 1521 1521 1521 1522 1522 1522 1523 1524 1524 1525 1526 1527 1528 1529 1531 1532 1533 1534 1535 1536 1537 1538 1538 1539 1540 1540 1541 1541 1542 1542 1542 1543 1543 1544 1545 1546
1519 1520 1520 1520 1521 1522 1522 1523 1523 1524 1524 1524 1525 1525 1526 1526 1527 1528 1529 1530 1531 1532 1533 1534 1535 1536 1537 1538 1538 1539 1539 1540 1540 1541 1541 1542 1542 1542 1543 1543 1544 1545 1545
1519 1520 1521 1522 1522 1523 1524 1524 1525 1525 1526 1526 1527 1527 1528 1528 1528 1529 1530 1531 1531 1532 1533 1534 1535 1536 1537 1538 1538 1539 1539 1540 1540 1540 1541 1541 1542 1542 1543 1543 1544 1544 1545
1520 1521 1522 1523 1523 1524 1525 1525 1526 1527 1527 1528 1528 1528 1529 1529 1530 1530 1530 1531 1531 1532 1533 1534 1535 1536 1537 1538 1538 1539 1539 1539 1540 1540 1541 1541 1542 1542 1542 1543 1543 1544 1545
1520 1521 1522 1523 1524 1525 1525 1526 1527 1528 1529 1529 1529 1530 1530 1530 1530 1530 1531 1531 1531 1532 1533 1534 1535 1536 1537 1538 1538 1539 1539 1539 1540 1540 1540 1541 1541 1542 1542 1542 1543 1543 1544
1520 1521 1522 1523 1524 1525 1526 1527 1528 1529 1529 1530 1530 1530 1531 1531 1531 1531 1531 1531 1532 1532 1533 1534 1535 1536 1537 1538 1538 1539 1539 1539 1540 1540 1540 1540 1541 1541 1541 1542 1542 1542 1543
1519 1521 1522 1523 1524 1525 1526 1528 1528 1529 1530 1530 1531 1531 1532 1532 1532 1532 1531 1532 1532 1533 1533 1534 1535 1535 1536 1537 1537 1538 1538 1538 1539 1539 1539 1539 1540 1540 1540 1541 1541 1541 1541
1519 1520 1521 1523 1524 1525 1527 1528 1529 1530 1530 1531 1531 1532 1532 1532 1532 1532 1532 1532 1532 1533 1533 1534 1534 1535 1536 1536 1536 1537 1537 1538 1538 1538 1538 1538 1538 1538 1539 1539 1539 1539 1540
1519 1520 1521 1522 1524 1525 1526 1527 1528 1529 1530 1531 1531 1532 1532 1532 1532 1532 1532 1532 1532 1533 1533 1534 1534 1535 1535 1536 1536 1536 1537 1537 1537 1537 1537 1537 1537 1537 1537 1538 1538 1538 1538
1518 1519 1520 1522 1523 1525 1526 1527 1529 1530 1531 1531 1532 1532 1532 1532 1532 1532 1532 1532 1532 1533 1533 1533 1534 1534 1535 1535 1535 1535 1536 1537 1536 1536 1536 1536 1536 1536 1536 1536 1537 1536 1536
1516 1518 1519 1521 1523 1524 1526 1528 1529 1530 1531 1531 1531 1531 1532 1532 1532 1532 1532 1532 1532 1532 1532 1533 1533 1533 1533 1534 1535 1535 1535 1534 1535 1535 1534 1534 1534 1534 1534 1535 1534 1534 1535
1514 1517 1519 1521 1523 1524 1526 1527 1528 1528 1529 1530 1531 1531 1531 1531 1531 1532 1532 1532 1532 1532 1532 1532 1532 1532 1532 1533 1533 1534 1534 1534 1534 1534 1534 1533 1533 1533 1533 1533 1533 1533 1533
1513 1516 1518 1520 1522 1524 1525 1526 1527 1528 1529 1530 1530 1531 1531 1531 1531 1531 1531 1531 1531 1531 1531 1531 1531 1531 1531 1532 1532 1532 1532 1533 1533 1532 1532 1532 1532 1532 1531 1531 1531 1531 1531
1512 1514 1516 1518 1520 1522 1524 1525 1526 1527 1528 1529 1529 1530 1530 1530 1531 1531 1531 1530 1530 1530 1530 1530 1530 1531 1531 1531 1531 1531 1531 1531 1531 1531 1530 1530 1530 1530 1530 1529 1529 1529 1528